Regional Weather Roundup
Issued by NWS

Home | Current Version | Previous Version | Text Only | Print | Product List | Glossary Off
Versions: 1 2 3 4 5 6 7 8 9 10 11 12 13 14 15 16 17 18 19 20 21 22 23 24 25 26 27 28 29 30 31 32 33 34 35 36 37 38 39 40 41 42 43 44 45 46 47 48 49 50

000
ASUS43 KLSX 182310
RWRMO

WEATHER SUMMARY FOR MISSOURI
NATIONAL WEATHER SERVICE SPRINGFIELD MO
600 PM CDT WED APR 18 2018

NOTE: "FAIR" INDICATES FEW OR NO CLOUDS BELOW 12,000 FEET WITH NO
       SIGNIFICANT WEATHER AND/OR OBSTRUCTIONS TO VISIBILITY.
       CURRENT SKY AND/OR WEATHER CONDITIONS ARE NOT AVAILABLE FOR
       CHILLICOTHE AND FARMINGTON.

MOZ001>031-035>038-043-044-053-054-190000-
...NORTHERN AND WESTERN MISSOURI...

CITY           SKY/WX    TMP DP  RH WIND       PRES   REMARKS
KANSAS CTY INT CLOUDY    44  27  51 NW14      30.09R
KANSAS C DTWN  CLOUDY    45  27  49 NW9       30.10R
LEE`S SUMMIT   CLOUDY    43  28  55 NW13      30.10R
ST JOSEPH      CLOUDY    43  30  60 NW17G30   30.10R
CHILLICOTHE      N/A     41  27  57 NW14G24   30.07R
KIRKSVILLE     CLOUDY    37  28  70 NW13G26   30.02R WCI  29

$$
MOZ066>068-077>081-088>096-101>105-190000-
...SOUTHWEST MISSOURI...

CITY           SKY/WX    TMP DP  RH WIND       PRES   REMARKS
SPRINGFIELD    MOSUNNY   57  36  45 NW25G33   30.03R
JOPLIN         SUNNY     55  34  44 NW17G32   30.11R
BRANSON        MOSUNNY   63  32  31 W10G25    30.01R

$$
MOZ032>034-039>042-045>050-055>058-069>072-190000-
...CENTRAL MISSOURI...

CITY           SKY/WX    TMP DP  RH WIND       PRES   REMARKS
COLUMBIA       CLOUDY    43  31  62 W18G32    30.03R
JEFFERSON CITY CLOUDY    46  32  58 NW20G30   30.04R
ROLLA          CLOUDY    47  34  60 W22G35    30.00
SEDALIA        CLOUDY    43  32  65 NW22G29   30.09R
WHITEMAN AFB   CLOUDY    42  29  58 NW21G26   30.06R
WARRENSBURG    CLOUDY    41  28  60 NW16G25   30.11R
OSAGE BEACH    CLOUDY    48  32  53 W14G22    30.05R

$$
MOZ051-052-059>065-190000-
...EAST CENTRAL MISSOURI...

CITY           SKY/WX    TMP DP  RH WIND       PRES   REMARKS
ST LOUIS INTL  CLOUDY    51  37  58 NW20G33   29.93R
SPIRIT OF STL  CLOUDY    51  36  56 NW21G30   29.94R
ST CHARLES     CLOUDY    49  36  61 NW29G38   29.94R

$$
MOZ072>076-082>087-097>100-106>115-190000-
...SOUTH CENTRAL AND SOUTHEAST MISSOURI...

CITY           SKY/WX    TMP DP  RH WIND       PRES   REMARKS
CAPE GIRARDEAU FAIR      71  39  31 W22G35    29.82R
FARMINGTON     PTSUNNY   57  38  48 NW17G30   29.92R
POPLAR BLUFF   FAIR      72  38  29 W17G30    29.86R
WEST PLAINS    MOSUNNY   62  37  39 NW15G25   29.97R

$$




USA.gov is the U.S. government's official web portal to all federal, state and local government web resources and services.